Regional Weather Roundup
Issued by NWS New Orleans/Baton Rouge, LA

Home | Current Version | Previous Version | Graphics & Text | Print | Product List | Glossary On
Versions: 1 2 3 4 5 6 7 8 9 10 11 12 13 14 15 16 17 18 19 20 21 22 23 24 25 26 27 28 29 30 31 32 33 34 35 36 37 38 39 40 41 42 43 44 45 46 47 48 49 50
740
ASUS44 KLIX 260705
RWRLIX
NEW ORLEANS REGIONAL WEATHER ROUNDUP
NATIONAL WEATHER SERVICE NEW ORLEANS LA
100 AM CST WED NOV 26 2014

NOTE: "FAIR" INDICATES FEW OR NO CLOUDS BELOW 12,000 FEET WITH NO
      SIGNIFICANT WEATHER AND/OR OBSTRUCTIONS TO VISIBILITY.
      SKY/WX - SKY CONDITION AND SIGNIFICANT WEATHER.
      TMP - AIR TEMPERATURE.     DP    - DEWPOINT TEMPERATURE.
      RH  - RELATIVE HUMIDITY.   PRES  - PRESSURE.
      HI  - HEAT INDEX.          WCI   - WIND CHILL INDEX.

*  THESE STATIONS ARE NOT NWS OR FAA STATIONS AND ARE NOT UNDER
   NWS QUALITY CONTROL.

LAZ038-040-048-061>063-065>067-069-260800-
SOUTHEAST LOUISIANA

CITY           SKY/WX    TMP DP  RH WIND       PRES   REMARKS
N.O. AUDUBON   NOT AVBL
N.O. INTL ARPT CLEAR     46  32  58 N5        30.23S
N.O. LAKEFRONT CLEAR     49  34  56 N16       30.23S
N.O. DOWNTOWN*   N/A     48  32  53 N3        30.23S
SLIDELL        CLEAR     39  32  76 CALM      30.21S
BATON ROUGE    CLEAR     34  32  92 CALM      30.22F
BOOTHVILLE     CLEAR     50  36  58 NW13      30.21S
BELLE CHASSE   CLEAR     46  34  62 CALM      30.22S
BOGALUSA*        N/A     35  32  88 CALM      30.22S
NEW ROADS*       N/A     34  33  96 CALM      30.22S
GONZALES*        N/A     36  35  99 CALM      30.23F
HAMMOND*       CLEAR     36  32  87 CALM      30.24S
HOUMA*         CLEAR     41  34  76 NW6       30.23F
PORT FOURCHON* SUNNY     48  37  66 N12       30.26S

$$

MSZ070-080>082-260800-
SOUTHERN MISSISSIPPI

CITY           SKY/WX    TMP DP  RH WIND       PRES   REMARKS
MCCOMB         CLEAR     31  28  89 CALM      30.20F
GULFPORT       CLEAR     42  32  67 NW7       30.19R
BILOXI         CLEAR     45  33  63 NW12      30.18S
PASCAGOULA     PTCLDY    45  29  53 NW7       30.18R

$$

COASTAL OBSERVATIONS
LAKE AND NEARSHORE STATIONS

STATION/POSITION TIME  TEMP    WIND        PRES    WAVE
                       AIR SEA DIR/SP/G            HT/PER
                 (UTC) (F)     (DEG/KT/KT) (MB)    (FT/S)
PASCAGOULA       0700   47     330/  6/ 10 1021.3
WAVELAND YACHT   0700   44     320/  8/ 12 1021.7
GRAND ISLE       0700   50 60  350/ 14/ 20 1023.7
SOUTHWEST PASS   0700   54                 1022.9
NEW CANAL        0700   50 54  350/  9/ 12 1023.7
SHELL BEACH      0700   49 53  340/ 15/ 18 1023.1

OFFSHORE STATIONS

STATION/POSITION TIME  TEMP    WIND        PRES    WAVE
                       AIR SEA DIR/SP/G            HT/PER
                 (UTC) (F)     (DEG/KT/KT) (MB)    (FT/S)
64 S DAUPHIN ISL 0624   57 71  340/ 19/ 25 1021.3    5/ 6

$$




USA.gov is the U.S. government's official web portal to all federal, state and local government web resources and services.